This is the latest recevied weather packets stored in our database for station/object G4TNU-0. If no packets are shown the sender has not sent any weather packets the latest 10 day(s).
| Time | Temp. | Humidity | Pressure | Rain* | Wind** | Luminosity | Snow |
|---|---|---|---|---|---|---|---|
| 1777116610 | 17.22° C | 29% | 1016.9 hPa | 0 mm | - | - | - |
| 1777114810 | 17.22° C | 31% | 1017.2 hPa | 0 mm | - | - | - |
| 1777053610 | 17.22° C | 34% | 1018.2 hPa | 0 mm | - | - | - |
| 1777051811 | 17.78° C | 32% | 1018.2 hPa | 0 mm | - | - | - |
| 1777050010 | 18.33° C | 31% | 1018.6 hPa | 0 mm | - | - | - |
| 1777048211 | 18.33° C | 30% | 1018.2 hPa | 0 mm | - | - | - |
| 1777042809 | 18.33° C | 30% | 1018.9 hPa | 0 mm | - | - | - |
| 1777041011 | 18.33° C | 31% | 1019.3 hPa | 0 mm | - | - | - |
| 1777039210 | 17.78° C | 32% | 1019.6 hPa | 0 mm | - | - | - |
| 1777037411 | 17.78° C | 33% | 1019.9 hPa | 0 mm | - | - | - |
| 1777035609 | 17.22° C | 34% | 1020.3 hPa | 0 mm | - | - | - |
| 1777030211 | 15° C | 36% | 1021.3 hPa | 0 mm | - | - | - |
| 1777028410 | 13.89° C | 41% | 1021.6 hPa | 0 mm | - | - | - |
| 1776967211 | 16.11° C | 42% | 1023.3 hPa | 0 mm | - | - | - |
| 1776965412 | 17.22° C | 42% | 1022.6 hPa | 0 mm | - | - | - |
| 1776963611 | 17.22° C | 41% | 1023.3 hPa | 0 mm | - | - | - |
| 1776961810 | 17.78° C | 40% | 1023.3 hPa | 0 mm | - | - | - |
| 1776960011 | 17.78° C | 40% | 1023.7 hPa | 0 mm | - | - | - |
| 1776958210 | 17.78° C | 42% | 1024 hPa | 0 mm | - | - | - |
| 1776956411 | 17.78° C | 44% | 1024 hPa | 0 mm | - | - | - |
| 1776954611 | 17.78° C | 45% | 1024 hPa | 0 mm | - | - | - |
| 1776952809 | 17.22° C | 46% | 1024.7 hPa | 0 mm | - | - | - |
| 1776951012 | 17.22° C | 47% | 1025 hPa | 0 mm | - | - | - |
| 1776949209 | 16.67° C | 49% | 1025.4 hPa | 0 mm | - | - | - |
| 1776947410 | 16.11° C | 52% | 1025.7 hPa | 0 mm | - | - | - |
* Rain latest hour (hover to see other rain measurements)
** Current wind speed in m/s (hover to see current wind gust speed)